,,Stat6,,Stat2,,Stat8,,Stat9,,Stat10,,Wind1,,Wind1,
time,status,PA1M_AVG,status,PR1M_SUM,status,RH1M_AVG,status,SR1M_AVG,status,TA1M_AVG,status,W1dAve1m,status,W1sAve1m,
2003-12-08, 00:00:00,VALID,916.778,VALID,0,VALID,100,VALID,0.0169808,VALID,19.498,VALID,206,VALID,0.561047,
2003-12-08, 00:01:00,VALID,916.78,VALID,0,VALID,100,VALID,0,VALID,19.4883,VALID,206,VALID,0.310213,
2003-12-08, 00:02:00,VALID,916.774,VALID,0,VALID,100,VALID,0.0169808,VALID,19.5015,VALID,206,VALID,0,
2003-12-08, 00:03:01,VALID,916.772,VALID,0,VALID,100,VALID,0.0339617,VALID,19.5112,VALID,193,VALID,0.466844,
2003-12-08, 00:04:01,VALID,916.771,VALID,0,VALID,100,VALID,0.0169808,VALID,19.5079,VALID,184,VALID,0.482031,
2003-12-08, 00:05:00,VALID,916.769,VALID,0,VALID,100,VALID,0,VALID,19.5017,VALID,186,VALID,0.390067,
2003-12-08, 00:06:00,VALID,916.75,VALID,0,VALID,100,VALID,0.0339617,VALID,19.4821,VALID,197,VALID,0.519886,
2003-12-08, 00:07:00,VALID,916.752,VALID,0,VALID,100,VALID,0,VALID,19.4724,VALID,200,VALID,0.459409,
2003-12-08, 00:08:00,VALID,916.746,VALID,0,VALID,100,VALID,0,VALID,19.4697,VALID,183,VALID,0.366425,
2003-12-08, 00:09:00,VALID,916.741,VALID,0,VALID,100,VALID,0,VALID,19.4727,VALID,180,VALID,0.475586,
2003-12-08, 00:10:01,VALID,916.744,VALID,0,VALID,100,VALID,-0.0169808,VALID,19.457,VALID,174,VALID,0.603609,
2003-12-08, 00:11:00,VALID,916.733,VALID,0,VALID,100,VALID,-0.0169808,VALID,19.4506,VALID,188,VALID,0.689258,
2003-12-08, 00:12:00,VALID,916.724,VALID,0,VALID,100,VALID,0,VALID,19.4272,VALID,172,VALID,0.700994,
2003-12-08, 00:13:01,VALID,916.729,VALID,0,VALID,100,VALID,-0.0169808,VALID,19.4307,VALID,178,VALID,1.16202,
2003-12-08, 00:14:00,VALID,916.721,VALID,0,VALID,100,VALID,-0.0339617,VALID,19.4309,VALID,183,VALID,0.684028,
2003-12-08, 00:15:01,VALID,916.714,VALID,0,VALID,100,VALID,0,VALID,19.4374,VALID,175,VALID,0.753534,
2003-12-08, 00:16:00,VALID,916.71,VALID,0,VALID,100,VALID,-0.0169808,VALID,19.4533,VALID,175,VALID,0.649709,
2003-12-08, 00:17:00,VALID,916.707,VALID,0,VALID,100,VALID,0,VALID,19.4471,VALID,149,VALID,0.590021,
2003-12-08, 00:18:00,VALID,916.707,VALID,0,VALID,100,VALID,-0.0169808,VALID,19.4568,VALID,137,VALID,0.209032,
2003-12-08, 00:19:00,VALID,916.698,VALID,0,VALID,100,VALID,0,VALID,19.4764,VALID,137,VALID,0.167411,
2003-12-08, 00:20:00,VALID,916.704,VALID,0,VALID,100,VALID,0,VALID,19.4568,VALID,137,VALID,0.161337,
2003-12-08, 00:21:00,VALID,916.687,VALID,0,VALID,100,VALID,0,VALID,19.4632,VALID,190,VALID,0.283612,
2003-12-08, 00:22:00,VALID,916.677,VALID,0,VALID,100,VALID,0,VALID,19.4764,VALID,215,VALID,0.0201982,
2003-12-08, 00:23:00,VALID,916.665,VALID,0,VALID,100,VALID,-0.0169808,VALID,19.4833,VALID,198,VALID,0.231771,
2003-12-08, 00:24:00,VALID,916.647,VALID,0,VALID,100,VALID,0,VALID,19.4729,VALID,194,VALID,0.237909,
2003-12-08, 00:25:00,VALID,916.629,VALID,0,VALID,100,VALID,0,VALID,19.4665,VALID,193,VALID,0.227734,
2003-12-08, 00:26:01,VALID,916.631,VALID,0,VALID,100,VALID,-0.0509425,VALID,19.4602,VALID,193,VALID,0.296689,
2003-12-08, 00:27:00,VALID,916.607,VALID,0,VALID,100,VALID,-0.0169808,VALID,19.4598,VALID,193,VALID,0.120916,
2003-12-08, 00:28:00,VALID,916.596,VALID,0,VALID,100,VALID,0,VALID,19.4533,VALID,183,VALID,0.168341,
2003-12-08, 00:29:00,VALID,916.58,VALID,0,VALID,100,VALID,0,VALID,19.463,VALID,174,VALID,0.243716,
2003-12-08, 00:30:00,VALID,916.576,VALID,0,VALID,100,VALID,-0.0169808,VALID,19.4568,VALID,143,VALID,0.477095,
2003-12-08, 00:31:00,VALID,916.581,VALID,0,VALID,100,VALID,0,VALID,19.4339,VALID,136,VALID,0.44186,
2003-12-08, 00:32:01,VALID,916.557,VALID,0,VALID,100,VALID,0,VALID,19.415,VALID,133,VALID,0.53683,
2003-12-08, 00:33:00,VALID,916.545,VALID,0,VALID,100,VALID,0,VALID,19.3986,VALID,125,VALID,0.566497,
2003-12-08, 00:34:00,VALID,916.535,VALID,0,VALID,100,VALID,0,VALID,19.3887,VALID,118,VALID,0.0497332,
2003-12-08, 00:35:01,VALID,916.518,VALID,0,VALID,100,VALID,0.0169808,VALID,19.3885,VALID,82,VALID,0.284766,
2003-12-08, 00:36:00,VALID,916.515,VALID,0,VALID,100,VALID,0,VALID,19.4049,VALID,81,VALID,0.112723,
2003-12-08, 00:37:00,VALID,916.511,VALID,0,VALID,100,VALID,0.0339617,VALID,19.3917,VALID,81,VALID,0.201823,
2003-12-08, 00:38:00,VALID,916.5,VALID,0,VALID,100,VALID,0,VALID,19.3723,VALID,81,VALID,0.183061,
2003-12-08, 00:39:00,VALID,916.512,VALID,0,VALID,100,VALID,0.0339617,VALID,19.3532,VALID,81,VALID,0.177083,
2003-12-08, 00:40:01,VALID,916.497,VALID,0,VALID,100,VALID,0.0169808,VALID,19.35,VALID,81,VALID,0.123598,
2003-12-08, 00:41:00,VALID,916.494,VALID,0,VALID,100,VALID,0.0169808,VALID,19.3462,VALID,81,VALID,0.109184,
2003-12-08, 00:42:00,VALID,916.506,VALID,0,VALID,100,VALID,0,VALID,19.3592,VALID,81,VALID,0.0766006,
2003-12-08, 00:43:01,VALID,916.488,VALID,0,VALID,100,VALID,0.0169808,VALID,19.3755,VALID,103,VALID,0.132982,
2003-12-08, 00:44:00,VALID,916.473,VALID,0,VALID,100,VALID,0,VALID,19.3855,VALID,104,VALID,0.121094,
2003-12-08, 00:45:00,VALID,916.437,VALID,0,VALID,100,VALID,0,VALID,19.3721,VALID,104,VALID,0.17351,
2003-12-08, 00:46:01,VALID,916.412,VALID,0,VALID,100,VALID,0.0509425,VALID,19.3857,VALID,104,VALID,0.1163,
2003-12-08, 00:47:00,VALID,916.387,VALID,0,VALID,100,VALID,0,VALID,19.3656,VALID,104,VALID,0.150856,
2003-12-08, 00:48:00,VALID,916.371,VALID,0,VALID,100,VALID,0,VALID,19.3629,VALID,104,VALID,0.00436047,
2003-12-08, 00:49:00,VALID,916.36,VALID,0,VALID,100,VALID,0,VALID,19.3599,VALID,104,VALID,0.363095,
2003-12-08, 00:50:00,VALID,916.356,VALID,0,VALID,100,VALID,-0.0339617,VALID,19.3274,VALID,106,VALID,0.733285,
2003-12-08, 00:51:00,VALID,916.344,VALID,0,VALID,100,VALID,0,VALID,19.3184,VALID,104,VALID,0.797396,
2003-12-08, 00:52:00,VALID,916.337,VALID,0,VALID,100,VALID,0,VALID,19.3082,VALID,96,VALID,0.743902,
2003-12-08, 00:53:00,VALID,916.322,VALID,0,VALID,100,VALID,0,VALID,19.2953,VALID,87,VALID,0.686098,
2003-12-08, 00:54:00,VALID,916.321,VALID,0,VALID,100,VALID,0,VALID,19.2879,VALID,75,VALID,0.589311,
2003-12-08, 00:55:00,VALID,916.324,VALID,0,VALID,100,VALID,0.0169808,VALID,19.2953,VALID,75,VALID,0.357422,
2003-12-08, 00:56:00,VALID,916.318,VALID,0,VALID,100,VALID,0.0169808,VALID,19.3013,VALID,75,VALID,0.188702,
2003-12-08, 00:57:01,VALID,916.306,VALID,0,VALID,100,VALID,0,VALID,19.3013,VALID,75,VALID,0.137153,
2003-12-08, 00:58:00,VALID,916.301,VALID,0,VALID,100,VALID,0.0169808,VALID,19.3045,VALID,75,VALID,0,
2003-12-08, 00:59:00,VALID,916.286,VALID,0,VALID,100,VALID,0.0169808,VALID,19.3015,VALID,75,VALID,0.0234375,
2003-12-08, 01:00:00,VALID,916.283,VALID,0,VALID,100,VALID,0.0339617,VALID,19.3169,VALID,75,VALID,0,
2003-12-08, 01:01:00,VALID,916.279,VALID,0,VALID,100,VALID,0.0169808,VALID,19.3311,VALID,75,VALID,0,
2003-12-08, 01:02:01,VALID,916.262,VALID,0,VALID,100,VALID,0,VALID,19.337,VALID,75,VALID,0,
2003-12-08, 01:03:00,VALID,916.254,VALID,0,VALID,100,VALID,0.0169808,VALID,19.35,VALID,75,VALID,0,
2003-12-08, 01:04:00,VALID,916.236,VALID,0,VALID,100,VALID,0.0169808,VALID,19.3532,VALID,75,VALID,0,
2003-12-08, 01:05:00,VALID,916.213,VALID,0,VALID,100,VALID,0.0169808,VALID,19.3462,VALID,75,VALID,0,
2003-12-08, 01:06:00,VALID,916.21,VALID,0,VALID,100,VALID,0.0339617,VALID,19.35,VALID,75,VALID,0.0232639,
2003-12-08, 01:07:01,VALID,916.195,VALID,0,VALID,100,VALID,0,VALID,19.3437,VALID,75,VALID,0.224746,
2003-12-08, 01:08:00,VALID,916.187,VALID,0,VALID,100,VALID,-0.0169808,VALID,19.347,VALID,111,VALID,0.452762,
2003-12-08, 01:09:00,VALID,916.164,VALID,0,VALID,100,VALID,0,VALID,19.3442,VALID,140,VALID,0.484908,
2003-12-08, 01:10:00,VALID,916.161,VALID,0,VALID,100,VALID,0.0169808,VALID,19.3236,VALID,143,VALID,0.527616,
2003-12-08, 01:11:00,VALID,916.144,VALID,0,VALID,100,VALID,0,VALID,19.3274,VALID,149,VALID,0.496466,
2003-12-08, 01:12:01,VALID,916.13,VALID,0,VALID,100,VALID,0.0169808,VALID,19.3177,VALID,151,VALID,0.508929,
2003-12-08, 01:13:00,VALID,916.13,VALID,0,VALID,100,VALID,0,VALID,19.3246,VALID,147,VALID,0.544331,
2003-12-08, 01:14:01,VALID,916.145,VALID,0,VALID,100,VALID,0,VALID,19.3149,VALID,134,VALID,0.896577,
2003-12-08, 01:15:01,VALID,916.146,VALID,0,VALID,100,VALID,-0.0169808,VALID,19.3082,VALID,131,VALID,1.05596,
2003-12-08, 01:16:01,VALID,916.146,VALID,0,VALID,100,VALID,0,VALID,19.3077,VALID,131,VALID,1.25391,
2003-12-08, 01:17:00,VALID,916.142,VALID,0,VALID,100,VALID,0,VALID,19.302,VALID,137,VALID,1.40325,
2003-12-08, 01:18:01,VALID,916.146,VALID,0,VALID,100,VALID,0,VALID,19.305,VALID,146,VALID,1.07403,
2003-12-08, 01:19:00,VALID,916.144,VALID,0,VALID,100,VALID,-0.0169808,VALID,19.3184,VALID,120,VALID,1.17448,
2003-12-08, 01:20:00,VALID,916.13,VALID,0,VALID,100,VALID,0,VALID,19.3308,VALID,136,VALID,1.48277,
2003-12-08, 01:21:00,VALID,916.12,VALID,0,VALID,100,VALID,-0.0339617,VALID,19.3475,VALID,137,VALID,1.26916,
2003-12-08, 01:22:00,VALID,916.098,VALID,0,VALID,100,VALID,-0.0169808,VALID,19.3571,VALID,144,VALID,1.31305,
2003-12-08, 01:23:00,VALID,916.081,VALID,0,VALID,100,VALID,-0.0169808,VALID,19.3502,VALID,125,VALID,1.369,
2003-12-08, 01:24:01,VALID,916.065,VALID,0,VALID,100,VALID,-0.0339617,VALID,19.3437,VALID,135,VALID,0.946907,
2003-12-08, 01:25:00,VALID,916.046,VALID,0,VALID,100,VALID,-0.0169808,VALID,19.3408,VALID,121,VALID,1.19364,
2003-12-08, 01:26:00,VALID,916.038,VALID,0,VALID,100,VALID,-0.0169808,VALID,19.3375,VALID,116,VALID,0.990189,
2003-12-08, 01:27:00,VALID,916.019,VALID,0,VALID,100,VALID,-0.0339617,VALID,19.3373,VALID,112,VALID,0.966619,
2003-12-08, 01:28:01,VALID,916.004,VALID,0,VALID,100,VALID,-0.0169808,VALID,19.3375,VALID,116,VALID,1.0334,
2003-12-08, 01:29:00,VALID,916.007,VALID,0,VALID,100,VALID,-0.0169808,VALID,19.3241,VALID,113,VALID,1.77381,
2003-12-08, 01:30:00,VALID,916.002,VALID,0,VALID,100,VALID,-0.0169808,VALID,19.3276,VALID,95,VALID,0.837054,
2003-12-08, 01:31:01,VALID,915.985,VALID,0,VALID,100,VALID,0,VALID,19.3311,VALID,124,VALID,1.28887,
2003-12-08, 01:32:01,VALID,915.983,VALID,0,VALID,100,VALID,-0.0169808,VALID,19.3174,VALID,133,VALID,1.59527,
2003-12-08, 01:33:00,VALID,915.956,VALID,0,VALID,100,VALID,0,VALID,19.308,VALID,135,VALID,1.83185,
2003-12-08, 01:34:00,VALID,915.931,VALID,0,VALID,100,VALID,0,VALID,19.2946,VALID,135,VALID,1.78997,
2003-12-08, 01:35:01,VALID,915.915,VALID,0,VALID,100,VALID,-0.0169808,VALID,19.2983,VALID,134,VALID,1.47441,
2003-12-08, 01:36:00,VALID,915.894,VALID,0,VALID,100,VALID,0,VALID,19.3018,VALID,124,VALID,1.87918,
2003-12-08, 01:37:01,VALID,915.869,VALID,0,VALID,100,VALID,0,VALID,19.2859,VALID,117,VALID,2.20028,
2003-12-08, 01:38:00,VALID,915.86,VALID,0,VALID,100,VALID,0.0169808,VALID,19.2759,VALID,107,VALID,1.72816,
2003-12-08, 01:39:01,VALID,915.835,VALID,0,VALID,100,VALID,-0.0169808,VALID,19.2732,VALID,131,VALID,1.85156,
2003-12-08, 01:40:00,VALID,915.827,VALID,0,VALID,100,VALID,0,VALID,19.2727,VALID,126,VALID,1.84233,
2003-12-08, 01:41:01,VALID,915.825,VALID,0,VALID,100,VALID,0,VALID,19.2732,VALID,101,VALID,1.30729,
2003-12-08, 01:42:00,VALID,915.804,VALID,0,VALID,100,VALID,0,VALID,19.2633,VALID,124,VALID,1.84691,
2003-12-08, 01:43:00,VALID,915.787,VALID,0,VALID,100,VALID,-0.0169808,VALID,19.2441,VALID,127,VALID,2.23586,
2003-12-08, 01:44:00,VALID,915.788,VALID,0,VALID,100,VALID,-0.0169808,VALID,19.2471,VALID,126,VALID,1.67569,
2003-12-08, 01:45:01,VALID,915.762,VALID,0,VALID,100,VALID,-0.0169808,VALID,19.2501,VALID,120,VALID,1.67223,
2003-12-08, 01:46:01,VALID,915.737,VALID,0,VALID,100,VALID,0,VALID,19.2307,VALID,125,VALID,1.71693,
2003-12-08, 01:47:00,VALID,915.72,VALID,0,VALID,100,VALID,0,VALID,19.2307,VALID,122,VALID,1.84766,
2003-12-08, 01:48:01,VALID,915.708,VALID,0,VALID,100,VALID,0,VALID,19.2081,VALID,108,VALID,1.81318,
2003-12-08, 01:49:00,VALID,915.698,VALID,0,VALID,100,VALID,-0.0169808,VALID,19.2245,VALID,109,VALID,1.11477,
2003-12-08, 01:50:01,VALID,915.689,VALID,0,VALID,100,VALID,0,VALID,19.2277,VALID,82,VALID,1.14613,
2003-12-08, 01:51:01,VALID,915.672,VALID,0,VALID,100,VALID,0,VALID,19.2377,VALID,99,VALID,0.774554,
2003-12-08, 01:52:01,VALID,915.651,VALID,0,VALID,100,VALID,0,VALID,19.2374,VALID,103,VALID,1.36928,
2003-12-08, 01:53:01,VALID,915.647,VALID,0,VALID,100,VALID,-0.0339617,VALID,19.2275,VALID,113,VALID,1.09702,
2003-12-08, 01:54:01,VALID,915.635,VALID,0,VALID,100,VALID,-0.0169808,VALID,19.2275,VALID,129,VALID,1.53441,
2003-12-08, 01:55:00,VALID,915.6,VALID,0,VALID,100,VALID,0,VALID,19.2374,VALID,118,VALID,1.35795,
2003-12-08, 01:56:01,VALID,915.577,VALID,0,VALID,100,VALID,0,VALID,19.2471,VALID,127,VALID,1.49182,
2003-12-08, 01:57:01,VALID,915.566,VALID,0,VALID,100,VALID,0,VALID,19.2503,VALID,143,VALID,1.21113,
2003-12-08, 01:58:01,VALID,915.571,VALID,0,VALID,100,VALID,-0.0169808,VALID,19.2568,VALID,107,VALID,1.15785,
2003-12-08, 01:59:01,VALID,915.553,VALID,0,VALID,100,VALID,0,VALID,19.26,VALID,127,VALID,1.96265,
2003-12-08, 02:00:01,VALID,915.569,VALID,0,VALID,100,VALID,0,VALID,19.2695,VALID,129,VALID,1.32884,
2003-12-08, 02:01:01,VALID,915.564,VALID,0,VALID,100,VALID,0,VALID,19.2789,VALID,140,VALID,1.77083,
2003-12-08, 02:02:00,VALID,915.55,VALID,0,VALID,100,VALID,-0.0169808,VALID,19.3022,VALID,136,VALID,0.923692,
2003-12-08, 02:03:01,VALID,915.539,VALID,0,VALID,100,VALID,0,VALID,19.3085,VALID,111,VALID,0.973586,
2003-12-08, 02:04:01,VALID,915.531,VALID,0,VALID,100,VALID,0,VALID,19.3082,VALID,128,VALID,1.26715,
2003-12-08, 02:05:01,VALID,915.522,VALID,0,VALID,100,VALID,-0.0169808,VALID,19.3152,VALID,122,VALID,0.747582,
2003-12-08, 02:06:01,VALID,915.514,VALID,0,VALID,100,VALID,-0.0169808,VALID,19.3378,VALID,121,VALID,1.34359,
2003-12-08, 02:07:01,VALID,915.514,VALID,0,VALID,100,VALID,-0.0509425,VALID,19.3122,VALID,138,VALID,1.56845,
2003-12-08, 02:08:01,VALID,915.495,VALID,0,VALID,100,VALID,-0.0849042,VALID,19.3089,VALID,138,VALID,1.875,
2003-12-08, 02:09:01,VALID,915.495,VALID,0,VALID,100,VALID,-0.101885,VALID,19.3119,VALID,138,VALID,1.15998,
2003-12-08, 02:10:01,VALID,915.491,VALID,0,VALID,100,VALID,-0.0849042,VALID,19.3256,VALID,133,VALID,1.26563,
2003-12-08, 02:11:01,VALID,915.482,VALID,0,VALID,100,VALID,-0.0339617,VALID,19.3258,VALID,128,VALID,1.29154,
2003-12-08, 02:12:00,VALID,915.48,VALID,0,VALID,100,VALID,-0.0679233,VALID,19.3184,VALID,153,VALID,1.06392,
2003-12-08, 02:13:01,VALID,915.47,VALID,0,VALID,100,VALID,-0.101885,VALID,19.3286,VALID,169,VALID,0.442454,
2003-12-08, 02:14:01,VALID,915.465,VALID,0,VALID,100,VALID,-0.0849042,VALID,19.3288,VALID,181,VALID,0.0615699,
2003-12-08, 02:15:01,VALID,915.446,VALID,0,VALID,100,VALID,-0.0679233,VALID,19.3417,VALID,128,VALID,0.380208,
2003-12-08, 02:16:01,VALID,915.446,VALID,0,VALID,100,VALID,-0.101885,VALID,19.3256,VALID,104,VALID,0.438988,
2003-12-08, 02:17:01,VALID,915.429,VALID,0,VALID,100,VALID,-0.0679233,VALID,19.3194,VALID,113,VALID,0.625,
2003-12-08, 02:18:01,VALID,915.41,VALID,0,VALID,100,VALID,-0.0849042,VALID,19.3124,VALID,87,VALID,0.716206,
2003-12-08, 02:19:01,VALID,915.406,VALID,0,VALID,100,VALID,-0.101885,VALID,19.3161,VALID,71,VALID,0.895198,
2003-12-08, 02:20:01,VALID,915.395,VALID,0,VALID,100,VALID,-0.101885,VALID,19.3224,VALID,86,VALID,0.621995,
2003-12-08, 02:21:01,VALID,915.375,VALID,0,VALID,100,VALID,-0.101885,VALID,19.3256,VALID,97,VALID,0.811098,
2003-12-08, 02:22:01,VALID,915.359,VALID,0,VALID,100,VALID,-0.101885,VALID,19.3191,VALID,95,VALID,1.54531,
2003-12-08, 02:23:01,VALID,915.351,VALID,0,VALID,100,VALID,-0.101885,VALID,19.3323,VALID,75,VALID,1.08289,
2003-12-08, 02:24:01,VALID,915.338,VALID,0,VALID,100,VALID,-0.0849042,VALID,19.3383,VALID,83,VALID,1.12092,
2003-12-08, 02:25:01,VALID,915.315,VALID,0,VALID,100,VALID,-0.0849042,VALID,19.3353,VALID,68,VALID,1.06389,
2003-12-08, 02:26:01,VALID,915.292,VALID,0,VALID,100,VALID,-0.0509425,VALID,19.3385,VALID,57,VALID,0.816679,
2003-12-08, 02:27:01,VALID,915.28,VALID,0,VALID,100,VALID,-0.101885,VALID,19.3385,VALID,66,VALID,0.964177,
2003-12-08, 02:28:01,VALID,915.267,VALID,0,VALID,100,VALID,-0.0679233,VALID,19.3454,VALID,59,VALID,0.87936,
2003-12-08, 02:29:01,VALID,915.258,VALID,0,VALID,100,VALID,-0.101885,VALID,19.3355,VALID,56,VALID,0.764382,
2003-12-08, 02:30:01,VALID,915.24,VALID,0,VALID,100,VALID,-0.0679233,VALID,19.3251,VALID,63,VALID,0.671684,
2003-12-08, 02:31:01,VALID,915.23,VALID,0,VALID,100,VALID,-0.101885,VALID,19.3288,VALID,84,VALID,0.866523,
2003-12-08, 02:32:00,VALID,915.223,VALID,0,VALID,100,VALID,-0.0679233,VALID,19.3127,VALID,79,VALID,1.10742,
2003-12-08, 02:33:00,VALID,915.212,VALID,0,VALID,100,VALID,-0.101885,VALID,19.2896,VALID,70,VALID,1.12145,
2003-12-08, 02:34:00,VALID,915.2,VALID,0,VALID,100,VALID,-0.101885,VALID,19.2997,VALID,87,VALID,0.927083,
2003-12-08, 02:35:00,VALID,915.186,VALID,0,VALID,100,VALID,-0.0849042,VALID,19.2968,VALID,71,VALID,0.828852,
2003-12-08, 02:36:00,VALID,915.171,VALID,0,VALID,100,VALID,-0.0679233,VALID,19.303,VALID,47,VALID,0.694111,
2003-12-08, 02:37:00,VALID,915.141,VALID,0,VALID,100,VALID,-0.0679233,VALID,19.3094,VALID,34,VALID,0.725109,
2003-12-08, 02:38:00,VALID,915.111,VALID,0,VALID,100,VALID,-0.0679233,VALID,19.306,VALID,66,VALID,0.545015,
2003-12-08, 02:39:00,VALID,915.099,VALID,0,VALID,100,VALID,-0.0849042,VALID,19.3127,VALID,83,VALID,0.592685,
2003-12-08, 02:40:00,VALID,915.087,VALID,0,VALID,100,VALID,-0.0849042,VALID,19.3132,VALID,88,VALID,0.473852,
2003-12-08, 02:41:00,VALID,915.09,VALID,0,VALID,100,VALID,-0.0679233,VALID,19.3027,VALID,88,VALID,0.249818,
2003-12-08, 02:42:00,VALID,915.096,VALID,0,VALID,100,VALID,-0.0679233,VALID,19.2926,VALID,105,VALID,0.214062,
2003-12-08, 02:43:00,VALID,915.108,VALID,0,VALID,100,VALID,-0.0849042,VALID,19.2995,VALID,167,VALID,0.23544,
2003-12-08, 02:44:00,VALID,915.112,VALID,0,VALID,100,VALID,-0.0679233,VALID,19.3159,VALID,197,VALID,0.364654,
2003-12-08, 02:45:00,VALID,915.132,VALID,0,VALID,100,VALID,-0.0849042,VALID,19.3087,VALID,198,VALID,0.48609,
2003-12-08, 02:46:00,VALID,915.148,VALID,0,VALID,100,VALID,-0.0849042,VALID,19.3161,VALID,199,VALID,0.585751,
2003-12-08, 02:47:00,VALID,915.166,VALID,0,VALID,100,VALID,-0.101885,VALID,19.3228,VALID,198,VALID,0.483132,
2003-12-08, 02:48:00,VALID,915.167,VALID,0,VALID,100,VALID,-0.0849042,VALID,19.3062,VALID,181,VALID,0.753374,
2003-12-08, 02:49:00,VALID,915.161,VALID,0,VALID,100,VALID,-0.0849042,VALID,19.3164,VALID,185,VALID,0.795673,
2003-12-08, 02:50:00,VALID,915.163,VALID,0,VALID,100,VALID,-0.0679233,VALID,19.303,VALID,208,VALID,0.426417,
2003-12-08, 02:51:00,VALID,915.175,VALID,0,VALID,100,VALID,-0.0679233,VALID,19.3064,VALID,226,VALID,0.594815,
2003-12-08, 02:52:00,VALID,915.192,VALID,0,VALID,100,VALID,-0.0679233,VALID,19.2863,VALID,213,VALID,1.00236,
2003-12-08, 02:53:00,VALID,915.194,VALID,0,VALID,100,VALID,-0.101885,VALID,19.2903,VALID,243,VALID,1.07813,
2003-12-08, 02:54:00,VALID,915.196,VALID,0,VALID,100,VALID,-0.101885,VALID,19.2933,VALID,224,VALID,0.572266,
2003-12-08, 02:55:00,VALID,915.194,VALID,0,VALID,100,VALID,-0.0849042,VALID,19.2836,VALID,243,VALID,0.594512,
2003-12-08, 02:56:00,VALID,915.184,VALID,0,VALID,100,VALID,-0.0849042,VALID,19.2866,VALID,213,VALID,0.759807,
2003-12-08, 02:57:00,VALID,915.172,VALID,0,VALID,100,VALID,-0.101885,VALID,19.293,VALID,211,VALID,0.920541,
2003-12-08, 02:58:00,VALID,915.158,VALID,0,VALID,100,VALID,-0.0849042,VALID,19.3097,VALID,206,VALID,0.594122,
2003-12-08, 02:59:00,VALID,915.155,VALID,0,VALID,100,VALID,-0.101885,VALID,19.306,VALID,194,VALID,0.454127,
2003-12-08, 03:00:00,VALID,915.152,VALID,0,VALID,100,VALID,-0.101885,VALID,19.3159,VALID,171,VALID,0.71218,
2003-12-08, 03:01:00,VALID,915.146,VALID,0,VALID,100,VALID,-0.0679233,VALID,19.3226,VALID,129,VALID,0.469965,
2003-12-08, 03:02:00,VALID,915.13,VALID,0,VALID,100,VALID,-0.101885,VALID,19.3159,VALID,152,VALID,0.882813,
2003-12-08, 03:03:00,VALID,915.117,VALID,0,VALID,100,VALID,-0.101885,VALID,19.3194,VALID,161,VALID,0.690727,
2003-12-08, 03:04:00,VALID,915.096,VALID,0,VALID,100,VALID,-0.101885,VALID,19.3194,VALID,181,VALID,0.838118,
2003-12-08, 03:05:00,VALID,915.09,VALID,0,VALID,100,VALID,-0.0849042,VALID,19.3219,VALID,176,VALID,0.556021,
2003-12-08, 03:06:00,VALID,915.093,VALID,0,VALID,100,VALID,-0.0849042,VALID,19.3186,VALID,165,VALID,0.288504,
2003-12-08, 03:07:00,VALID,915.095,VALID,0,VALID,100,VALID,-0.0169808,VALID,19.3281,VALID,148,VALID,0.482031,
2003-12-08, 03:08:00,VALID,915.088,VALID,0,VALID,100,VALID,-0.0509425,VALID,19.3147,VALID,157,VALID,0.69215,
2003-12-08, 03:09:00,VALID,915.081,VALID,0,VALID,100,VALID,-0.0169808,VALID,19.3283,VALID,127,VALID,0.458112,
2003-12-08, 03:10:00,VALID,915.083,VALID,0,VALID,100,VALID,-0.0339617,VALID,19.3313,VALID,118,VALID,0.0316051,
2003-12-08, 03:11:00,VALID,915.079,VALID,0,VALID,100,VALID,-0.0509425,VALID,19.3249,VALID,118,VALID,0.13891,
2003-12-08, 03:12:00,VALID,915.103,VALID,0,VALID,100,VALID,-0.0509425,VALID,19.3408,VALID,118,VALID,0.322129,
2003-12-08, 03:13:00,VALID,915.117,VALID,0,VALID,100,VALID,-0.0169808,VALID,19.3311,VALID,125,VALID,0.555069,
2003-12-08, 03:14:00,VALID,915.126,VALID,0,VALID,100,VALID,0,VALID,19.3276,VALID,136,VALID,1.01254,
2003-12-08, 03:15:00,VALID,915.126,VALID,0,VALID,100,VALID,-0.0509425,VALID,19.347,VALID,133,VALID,0.54516,
2003-12-08, 03:16:00,VALID,915.122,VALID,0,VALID,100,VALID,-0.0679233,VALID,19.3507,VALID,123,VALID,0.302641,
2003-12-08, 03:17:00,VALID,915.127,VALID,0,VALID,100,VALID,-0.0169808,VALID,19.347,VALID,101,VALID,0.588914,
2003-12-08, 03:18:00,VALID,915.117,VALID,0,VALID,100,VALID,-0.0509425,VALID,19.3442,VALID,93,VALID,0.503196,
2003-12-08, 03:19:00,VALID,915.102,VALID,0,VALID,100,VALID,-0.0169808,VALID,19.3504,VALID,89,VALID,0.347752,
2003-12-08, 03:20:00,VALID,915.086,VALID,0,VALID,100,VALID,-0.0169808,VALID,19.3599,VALID,88,VALID,0.132241,
2003-12-08, 03:21:00,VALID,915.083,VALID,0,VALID,100,VALID,0.0169808,VALID,19.3532,VALID,131,VALID,0.780194,
2003-12-08, 03:22:00,VALID,915.079,VALID,0,VALID,100,VALID,0.0339617,VALID,19.3458,VALID,157,VALID,0.646439,
2003-12-08, 03:23:00,VALID,915.075,VALID,0,VALID,100,VALID,0.0339617,VALID,19.3525,VALID,129,VALID,0.903646,
2003-12-08, 03:24:00,VALID,915.057,VALID,0,VALID,100,VALID,0.0509425,VALID,19.3751,VALID,138,VALID,0.60992,
2003-12-08, 03:25:00,VALID,915.036,VALID,0,VALID,100,VALID,0.0509425,VALID,19.3813,VALID,156,VALID,0.493676,
2003-12-08, 03:26:00,VALID,915.02,VALID,0,VALID,100,VALID,0.0339617,VALID,19.4076,VALID,143,VALID,0.918241,
2003-12-08, 03:27:00,VALID,915.015,VALID,0,VALID,100,VALID,0.0339617,VALID,19.4036,VALID,131,VALID,1.12348,
2003-12-08, 03:28:00,VALID,915,VALID,0,VALID,100,VALID,0.0849042,VALID,19.4198,VALID,134,VALID,0.840554,
2003-12-08, 03:29:00,VALID,914.977,VALID,0,VALID,100,VALID,0.0849042,VALID,19.4362,VALID,143,VALID,0.662287,
2003-12-08, 03:30:00,VALID,914.965,VALID,0,VALID,100,VALID,0.0509425,VALID,19.4426,VALID,130,VALID,0.678354,
2003-12-08, 03:31:00,VALID,914.966,VALID,0,VALID,100,VALID,0.0509425,VALID,19.4493,VALID,125,VALID,1.13972,
2003-12-08, 03:32:00,VALID,914.977,VALID,0,VALID,100,VALID,0.101885,VALID,19.4488,VALID,125,VALID,0.881214,
2003-12-08, 03:33:00,VALID,914.982,VALID,0,VALID,100,VALID,0.101885,VALID,19.462,VALID,116,VALID,1.10511,
2003-12-08, 03:34:00,VALID,914.992,VALID,0,VALID,100,VALID,0.0849042,VALID,19.465,VALID,120,VALID,1.14704,
2003-12-08, 03:35:00,VALID,914.998,VALID,0,VALID,100,VALID,0.0509425,VALID,19.4819,VALID,128,VALID,1.1149,
2003-12-08, 03:36:00,VALID,914.99,VALID,0,VALID,100,VALID,0,VALID,19.4883,VALID,129,VALID,0.904978,
2003-12-08, 03:37:00,VALID,915.006,VALID,0,VALID,100,VALID,-0.0849042,VALID,19.4891,VALID,135,VALID,0.811928,
2003-12-08, 03:38:00,VALID,915.01,VALID,0,VALID,100,VALID,-0.0339617,VALID,19.496,VALID,140,VALID,0.90625,
2003-12-08, 03:39:00,VALID,914.996,VALID,0,VALID,100,VALID,0,VALID,19.4985,VALID,149,VALID,0.633358,
2003-12-08, 03:40:00,VALID,914.996,VALID,0,VALID,100,VALID,-0.0339617,VALID,19.499,VALID,145,VALID,0.594752,
2003-12-08, 03:41:00,VALID,915.011,VALID,0,VALID,100,VALID,-0.0509425,VALID,19.496,VALID,137,VALID,0.666969,
2003-12-08, 03:42:00,VALID,915.012,VALID,0,VALID,100,VALID,-0.0169808,VALID,19.4955,VALID,141,VALID,0.501367,
2003-12-08, 03:43:00,VALID,915.023,VALID,0,VALID,100,VALID,-0.0339617,VALID,19.4958,VALID,135,VALID,0.548177,
2003-12-08, 03:44:00,VALID,915.016,VALID,0,VALID,100,VALID,-0.0169808,VALID,19.4791,VALID,123,VALID,1.3695,